Flag for Denmark Weather past 2 weeks in Copenhagen, Denmark

Now
52 °F

Partly sunny.


Feels Like: 47 °F
Forecast: 47 / 57 °F
Wind: 16 mph from Northwest

Location: Koebenhavn-Kastrup Airport

Current Time: May 27, 2015 at 8:47:27 AM

Latest Report: May 27, 2015 at 8:20 AM


Visibility: N/A

Pressure: 30.01 "Hg

Humidity: 72%

Dew point: 43 °F

Location of CopenhagenLocation

Historic Weather in Copenhagen — Graph

°F

Copenhagen temperature yesterday

Maximum temperature yesterday: 59 °F (at 4:50 PM)
Minimum temperature yesterday: 43 °F (at 4:50 AM)
Average temperature yesterday: 52 °F

Past Weeks' High & Low Weather Summary

 TemperatureHumidityPressure
High63 °F (May 14, 3:20 PM)100% (May 16, 7:20 PM)30.24 "Hg (May 16, 7:20 PM)
Low39 °F (May 24, 4:50 AM)36% (May 15, 11:20 AM)29.53 "Hg (May 19, 3:20 AM)
Average51 °F76%29.94 "Hg
* Reported May 12 7:20 AM — May 27 7:50 AM, Copenhagen, Weather by CustomWeather, © 2015

Note: Actual official high and low records may vary slightly from our data, if they occured in-between our weather recording intervals... More about our weather records

Advertising

Copenhagen weather history for previous 24 hours

 ConditionsComfort  
Time TempWeatherWind HumidityBarometerVisibility
7:50 AM
Wed, May 27
50 °FBroken clouds.12 mph76%30.01 "HgN/A
7:20 AM50 °FBroken clouds.12 mph82%30.01 "HgN/A
6:50 AM50 °FPassing clouds.12 mph82%29.98 "HgN/A
6:20 AM46 °FPassing clouds.8 mph87%30.01 "HgN/A
5:20 AM45 °FPassing clouds.7 mph87%29.98 "HgN/A
4:50 AM45 °FPassing clouds.8 mph87%29.98 "HgN/A
4:20 AM45 °FPassing clouds.9 mph87%29.98 "HgN/A
3:50 AM46 °FPassing clouds.12 mph82%29.98 "HgN/A
3:20 AM48 °FPassing clouds.15 mph76%29.98 "HgN/A
2:50 AM48 °FPassing clouds.15 mph76%29.98 "HgN/A
2:20 AM48 °FPassing clouds.6 mph71%29.98 "HgN/A
1:50 AM46 °FPassing clouds.7 mph76%29.98 "HgN/A
1:20 AM45 °FPassing clouds.7 mph81%30.01 "HgN/A
12:50 AM46 °FPassing clouds.9 mph76%29.98 "HgN/A
12:20 AM46 °FPassing clouds.7 mph76%29.98 "HgN/A
11:20 PM
Tue, May 26
50 °FPassing clouds.12 mph67%29.98 "HgN/A
10:50 PM50 °FClear.12 mph67%29.98 "Hg10 mi
10:20 PM50 °FSunny.13 mph67%29.98 "Hg10 mi
9:50 PM52 °FPassing clouds.13 mph58%29.98 "HgN/A
9:20 PM52 °FPassing clouds.13 mph58%29.98 "HgN/A
8:50 PM54 °FPassing clouds.20 mph54%29.98 "HgN/A
8:20 PM54 °FScattered clouds.17 mph63%29.95 "HgN/A
7:50 PM55 °FScattered clouds.17 mph59%29.95 "HgN/A
7:20 PM55 °FScattered clouds.16 mph55%29.95 "HgN/A
6:50 PM55 °FScattered clouds.16 mph59%29.95 "HgN/A
6:20 PM57 °FScattered clouds.16 mph55%29.95 "HgN/A
5:50 PM57 °FScattered clouds.15 mph51%29.95 "HgN/A
5:20 PM55 °FScattered clouds.16 mph59%29.95 "HgN/A
4:50 PM59 °FScattered clouds.17 mph51%29.92 "HgN/A
4:20 PM57 °FScattered clouds.15 mph55%29.92 "HgN/A
3:50 PM55 °FPassing clouds.16 mph59%29.92 "HgN/A
3:20 PM55 °FScattered clouds.17 mph55%29.92 "HgN/A
2:50 PM57 °FScattered clouds.14 mph55%29.92 "HgN/A
2:20 PM55 °FScattered clouds.14 mph59%29.92 "HgN/A
1:50 PM54 °FScattered clouds.14 mph58%29.92 "HgN/A
1:20 PM55 °FScattered clouds.13 mph63%29.92 "HgN/A
12:50 PM55 °FScattered clouds.18 mph59%29.92 "HgN/A
12:20 PM55 °FSprinkles. Scattered clouds.16 mph63%29.92 "HgN/A
11:50 AM52 °FScattered clouds.17 mph67%29.92 "HgN/A
11:20 AM54 °FScattered clouds.14 mph72%29.92 "HgN/A
10:50 AM48 °FSprinkles. Scattered clouds.16 mph76%29.92 "HgN/A
10:20 AM50 °FScattered clouds.14 mph76%29.92 "HgN/A
9:50 AM54 °FScattered clouds.14 mph67%29.92 "HgN/A
9:20 AM50 °FScattered clouds.15 mph71%29.92 "HgN/A
8:50 AM52 °FPartly sunny.13 mph72%29.89 "HgN/A
8:20 AM52 °FScattered clouds.12 mph72%29.92 "HgN/A
Weather by CustomWeather, © 2015

See weather overviewHow to use our weather pages